Preview of NWS' New Version of Forecast
This preview is not operational and should not be used for support decisions.

Regional Weather Roundup (RWR)

Issued by National Weather Service (NWS)

                            
000
ASPQ40 PGUM 190010
RWRPQ 
WEATHER ROUNDUP FOR THE MARIANAS AND MICRONESIA
NATIONAL WEATHER SERVICE TIYAN GU
1000 AM CHST WED JUN 19 2019

GUZ001>004-190100-
MARIANA ISLANDS-
  
CITY           SKY/WX    TMP DP  RH WIND       PRES   REMARKS
GUAM AIRPORT   MOSUNNY   84  73  70 E13       29.88S HX  91           
ANDERSEN AFB   PTSUNNY   86  75  70 E12       29.88F HX  95           
ROTA AIRPORT   MOSUNNY   84  73  70 SE16      29.87S HX  91           
TINIAN AP      MOSUNNY   86  75  70 E15       29.86S HX  95           
SAIPAN AP      MOSUNNY   88  73  62 SE15      29.88R HX  96           

$$

PMZ161-190100-
REPUBLIC OF PALAU-
  
CITY           SKY/WX    TMP DP  RH WIND       PRES   REMARKS
KOROR AP       PTSUNNY   84  77  79 N5        29.80S HX  94           
KOROR WSO      NOT AVBL                                               

$$

PMZ171>174-190100-
FEDERATED STATES OF MICRONESIA-
  
CITY           SKY/WX    TMP DP  RH WIND       PRES   REMARKS
YAP AIRPORT    PTSUNNY   88  79  74 E8        29.81S HX 102           
CHUUK AP       CLOUDY    81  77  89 E7        29.84F                  
POHNPEI AP     CLOUDY    79  77  94 E6        29.85S                  
POHNPEI WSO    LGT RAIN  79  77  94 SE6       29.87F                  
KOSRAE AP      PTSUNNY   88  77  70 NE9       29.80F HX 100           

$$

PMZ181-190100-
REPUBLIC OF THE MARSHALL ISLANDS-
  
CITY           SKY/WX    TMP DP  RH WIND       PRES   REMARKS
KWAJALEIN AP   MOSUNNY   88  77  70 E14       29.82F HX 100           
MAJURO AP      NOT AVBL                                               
MAJURO WSO     PTSUNNY   86  79  79 E8        29.79F HX  99           

$$